This demonstration page uses our WeatherBlox Daily Observations layout. Learn more.

Left ArrowRight Arrow

Hourly Observations for February 8, 2017

Temp ( °F °C ) Dew Point ( °F °C ) Humidity (%) Winds ( mph kmh ) Pressure ( in mb ) Visibility ( mi km ) Precip ( " mm )
12:59 am 00:59 Clear 61 16.1 54 12.2 78 78 SSW 14 22 29.73 1007 10 16 0.00 0.00
1:59 am 01:59 Mostly Clear 62 16.7 56 13.3 80 80 SSW 10 17 29.73 1007 10 16 0.00 0.00
2:59 am 02:59 Mostly Cloudy 62 16.7 56 13.3 80 80 SSW 10 17 29.71 1006 10 16 0.00 0.00
3:59 am 03:59 Mostly Cloudy 63 17.2 57 13.9 81 81 SSW 10 17 29.70 1006 10 16 0.00 0.00
4:59 am 04:59 Partly Cloudy 62 16.7 57 13.9 84 84 S 10 17 29.70 1006 9 14 0.00 0.00
5:59 am 05:59 Mostly Cloudy 61 16.1 57 13.9 87 87 SW 7 11 29.69 1006 8 13 0.00 0.00
6:59 am 06:59 Cloudy 61 16.1 57 13.9 87 87 SSW 6 9 29.69 1006 8 13 0.00 0.00
7:59 am 07:59 Cloudy with Mist and Fog 60 15.6 57 13.9 90 90 S 7 11 29.70 1006 6 10 0.00 0.03
8:59 am 08:59 Mostly Cloudy with Mist and Fog 61 16.1 58 14.4 90 90 S 8 13 29.71 1006 6 10 0.00 0.00
9:59 am 09:59 Mostly Cloudy 62 16.7 58 14.4 86 86 SSW 7 11 29.71 1006 7 11 0.00 0.00
10:59 am 10:59 Mostly Cloudy 64 17.8 58 14.4 81 81 WSW 7 11 29.72 1007 8 13 0.00 0.00
11:59 am 11:59 Mostly Cloudy 66 18.9 57 13.9 73 73 W 6 9 29.71 1006 10 16 0.00 0.00
12:59 pm 12:59 Mostly Cloudy 68 20 55 12.8 63 63 WNW 9 15 29.69 1005 10 16 0.00 0.00
1:59 pm 13:59 Sunny 70 21.1 53 11.7 55 55 W 7 11 29.66 1004 10 16 0.00 0.00
2:59 pm 14:59 Partly Cloudy 74 23.3 52 11.1 46 46 NNW 7 11 29.65 1004 10 16 0.00 0.00
3:59 pm 15:59 Partly Cloudy 70 21.1 49 9.4 47 47 W 7 11 29.66 1005 10 16 0.00 0.00
4:59 pm 16:59 Partly Cloudy 68 20 47 8.3 47 47 W 5 7 29.66 1005 10 16 0.00 0.00
5:59 pm 17:59 Partly Cloudy 61 16.1 49 9.4 65 65 ESE 5 7 29.68 1005 10 16 0.00 0.00
6:59 pm 18:59 Partly Cloudy 60 15.6 50 10 70 70 SE 5 7 29.67 1005 10 16 0.00 0.00
7:59 pm 19:59 Cloudy 63 17.2 50 10 63 63 S 7 11 29.70 1006 10 16 0.00 0.00
8:59 pm 20:59 Cloudy 63 17.2 53 11.7 70 70 S 6 9 29.69 1005 10 16 0.00 0.00
9:59 pm 21:59 Mostly Cloudy 61 16.1 52 11.1 72 72 SSE 6 9 29.65 1004 10 16 0.00 0.00
10:59 pm 22:59 Mostly Cloudy 61 16.1 52 11.1 72 72 S 8 13 29.64 1004 10 16 0.00 0.00
11:59 pm 23:59 Cloudy 62 16.7 50 10 65 65 S 7 11 29.62 1003 10 16 0.00 0.00

Powered by AerisWeather